Wind_Speed
26 25 24 23 23 24 24 24 24 24 25 26 26 27 28 28 28 29 30 30 32 33 34 36 37 38 39 41 41 43 43 45 45 46 47 47 47 46 46 46 46 46 47 48 49 50 53 54 56 57 57 57 58 58 59 59 59 60 60 61 59 56 55 53 52 52 50 48 45 44 43 42 41 41 42 43 43 44 45 43 40 37 38 40 39 42 44 37
25 25 24 23 23 24 24 24 25 25 25 26 27 28 29 29 30 30 31 32 33 34 36 37 39 40 41 42 44 45 46 47 48 48 49 48 48 47 47 46 45 45 45 46 47 49 51 53 56 57 58 59 59 60 60 61 61 62 62 62 59 56 56 55 54 53 52 50 48 46 44 43 42 42 44 44 43 41 43 44 39 36 37 39 40 42 45 39
25 24 24 24 24 25 25 26 26 26 27 27 28 28 29 30 30 31 32 33 34 36 37 39 40 41 43 44 46 47 48 49 49 49 49 48 48 47 47 46 46 45 44 44 44 46 48 51 54 56 58 59 60 60 61 62 63 63 64 64 60 57 59 58 57 56 54 52 51 49 45 43 43 43 45 44 41 40 43 44 39 35 35 37 39 43 45 40
25 25 25 26 26 27 27 28 28 28 29 29 29 29 30 30 31 31 33 34 35 37 38 39 41 42 44 46 47 48 49 49 49 48 48 46 46 45 44 44 43 43 42 42 42 43 45 48 51 53 56 57 59 60 61 62 63 64 65 64 60 60 62 61 60 58 56 54 53 51 46 45 45 44 45 44 43 42 43 44 40 35 34 35 38 43 44 40
25 26 26 27 28 28 29 29 30 30 30 30 31 31 31 31 32 33 34 35 36 37 39 40 42 44 46 47 48 49 49 48 47 47 46 43 41 40 39 39 39 39 38 38 38 39 41 44 47 50 53 55 57 58 59 61 62 65 65 64 62 64 65 63 61 60 58 56 55 52 48 46 47 46 45 45 45 44 43 44 41 35 34 36 37 41 44 41
26 27 27 28 29 29 30 30 30 31 31 31 31 31 32 32 33 34 35 36 37 38 40 42 43 45 46 47 48 48 47 46 45 43 41 38 36 34 34 34 34 34 35 35 36 37 38 40 43 46 49 51 53 54 56 58 60 63 64 64 65 66 67 64 62 61 59 58 57 54 50 48 48 47 46 46 46 44 43 43 41 37 35 38 41 43 43 40
27 27 27 28 29 30 30 30 31 31 31 31 31 32 32 33 34 34 35 36 38 39 41 43 44 45 46 47 47 46 44 42 39 37 35 33 32 32 31 32 32 32 32 33 34 35 36 38 40 42 45 47 49 51 53 55 57 61 62 64 66 67 67 65 63 62 61 60 58 56 52 49 48 48 47 48 47 46 45 45 42 38 36 38 42 45 44 40
27 27 28 28 29 30 31 31 30 31 31 31 32 32 33 33 34 35 36 37 39 40 42 43 44 45 46 45 43 41 38 36 33 32 30 28 29 29 30 31 31 32 32 32 32 33 34 36 37 39 41 44 46 47 49 51 53 57 59 62 65 67 66 65 64 62 61 60 59 58 54 50 49 49 48 48 48 47 46 45 43 38 35 37 38 42 46 42
28 28 29 29 30 30 31 31 31 31 31 32 32 33 33 34 34 36 37 38 40 41 42 43 44 45 44 42 38 36 33 31 29 27 26 25 26 27 28 29 30 31 31 31 31 31 32 33 34 36 38 41 43 45 46 47 49 52 55 59 62 65 65 64 64 62 61 60 59 58 55 52 50 49 48 47 48 47 46 45 45 40 35 36 36 39 43 41
29 29 29 30 30 31 31 32 32 32 32 32 32 32 33 34 35 37 38 39 40 41 42 43 44 43 40 36 33 31 28 27 25 24 24 24 25 26 27 27 28 28 29 29 29 29 29 30 31 32 33 36 39 42 44 44 46 48 52 56 59 62 63 63 62 62 61 60 59 58 57 53 50 50 48 47 47 47 46 45 46 44 36 35 37 37 38 38
29 30 30 31 31 32 32 32 32 32 32 32 32 33 34 35 36 38 39 40 41 41 42 42 41 39 36 32 29 27 24 23 23 23 24 24 24 25 26 25 25 25 26 26 26 27 27 28 28 28 29 32 35 38 41 42 43 46 50 52 54 57 59 60 60 59 59 60 59 58 57 54 52 51 47 46 48 48 48 47 48 47 40 36 36 36 34 34
30 30 31 32 32 33 33 33 33 33 33 32 33 34 35 36 37 39 40 40 41 41 41 40 38 35 31 27 25 23 21 21 22 23 24 24 24 24 24 23 23 24 24 24 24 24 25 25 25 25 26 28 31 34 37 40 41 44 47 48 50 53 54 56 57 56 57 58 58 57 57 56 52 50 47 46 48 48 48 48 48 47 43 38 35 35 35 32
30 31 32 33 33 33 33 33 33 33 33 33 34 35 36 37 38 39 40 40 41 41 40 38 35 31 27 24 22 20 19 20 22 23 24 24 24 23 22 22 22 23 23 23 23 22 22 22 22 23 23 25 28 31 35 38 40 41 44 46 48 49 49 51 53 54 54 55 55 56 58 57 52 50 49 47 47 47 49 49 48 47 45 40 37 37 37 36
30 31 32 33 33 34 34 34 33 33 33 34 35 36 37 38 39 40 40 40 40 39 37 34 31 27 24 22 20 18 19 20 22 24 25 24 23 23 22 21 22 22 23 23 22 21 20 20 21 22 22 22 25 28 32 36 38 39 42 44 46 47 46 47 50 51 52 52 52 54 59 58 52 51 50 47 47 48 49 49 49 48 47 43 40 41 39 38
30 31 33 33 33 34 34 34 33 33 33 35 36 36 38 39 39 40 40 39 38 37 34 31 28 25 22 19 18 18 19 20 23 24 25 25 23 22 21 21 21 22 22 22 21 20 19 19 20 21 21 21 21 24 29 33 36 38 39 41 43 44 44 45 47 48 50 50 49 53 59 59 54 51 49 47 48 48 48 49 49 49 49 46 42 43 42 41
30 31 33 33 33 33 33 34 34 33 34 35 36 37 38 39 39 40 39 38 36 34 31 28 26 23 20 18 17 18 19 20 23 25 25 25 23 21 21 21 21 20 20 19 18 17 17 17 18 19 19 20 19 20 24 29 34 37 38 39 41 42 43 43 44 45 47 48 48 52 59 59 54 50 47 48 49 49 49 48 49 49 49 49 44 42 43 42
30 31 33 33 33 33 33 34 34 34 35 36 36 37 38 39 39 39 38 36 34 31 29 27 24 21 20 18 17 18 19 21 24 25 25 24 22 21 20 20 18 18 17 16 15 15 16 16 17 17 18 18 18 18 20 24 30 35 36 37 38 40 41 41 42 44 46 47 46 50 57 58 54 48 45 48 48 49 50 47 48 48 48 50 48 43 42 42
31 32 33 33 33 33 34 34 35 36 36 36 37 38 39 39 40 39 37 34 32 30 28 26 22 20 20 18 17 18 20 21 24 24 24 23 21 19 19 17 16 16 15 14 14 14 15 16 16 17 17 18 17 17 18 21 25 31 34 35 36 38 40 40 40 43 45 46 45 47 53 55 52 47 45 47 48 49 49 47 47 47 47 49 50 47 44 43
31 32 33 34 33 33 34 35 35 36 37 37 38 39 39 39 39 38 35 33 31 30 28 24 21 20 20 18 17 18 20 22 24 24 24 22 19 17 17 16 15 15 14 13 14 14 15 16 16 17 18 17 17 16 17 20 23 27 31 33 35 36 38 38 39 41 43 44 44 46 50 52 50 46 45 47 49 49 49 48 48 48 48 48 50 51 47 42
32 33 34 34 33 34 34 35 36 37 37 37 38 39 39 40 39 37 34 32 30 29 26 23 20 20 20 18 18 19 21 22 24 25 24 21 18 16 15 15 15 14 12 12 13 13 14 15 15 16 17 17 16 15 16 20 23 25 28 30 32 35 36 36 36 38 41 42 42 45 48 50 49 44 43 46 49 50 50 49 49 50 50 49 49 51 49 43
33 33 34 34 34 34 35 35 36 37 37 38 39 39 39 39 39 36 33 31 29 28 25 22 20 19 19 18 19 21 22 24 24 23 22 20 18 15 14 14 14 11 9 10 11 11 13 12 13 15 16 16 14 13 15 18 21 23 24 26 29 32 33 33 34 35 39 41 41 44 46 48 48 44 43 46 49 50 50 49 50 52 52 51 49 49 49 43
34 34 35 35 34 34 35 35 36 37 38 38 39 39 39 39 37 34 32 30 29 27 25 22 19 18 18 18 20 21 22 24 24 21 19 18 17 15 14 13 12 9 8 9 9 10 11 10 11 13 15 16 14 13 14 17 19 21 23 24 25 28 30 31 32 33 37 40 40 43 44 45 47 44 42 46 49 50 49 49 51 53 54 53 50 48 48 45
34 34 35 35 34 33 34 35 36 37 38 38 39 39 39 39 36 33 30 29 29 27 24 21 18 18 17 18 20 22 23 23 23 21 19 17 15 15 14 12 10 8 8 9 10 11 10 8 9 11 13 14 14 13 13 16 18 20 21 22 22 24 26 26 29 32 35 38 38 40 42 43 45 43 41 44 49 50 49 49 52 55 56 55 51 48 47 46
34 34 35 35 34 33 34 35 36 37 37 38 38 39 39 38 35 32 29 28 29 26 21 19 18 18 18 18 21 23 24 23 21 20 19 16 14 14 14 11 9 8 8 9 10 11 10 7 7 8 10 11 11 11 11 14 17 19 20 20 20 23 25 25 27 31 34 36 37 38 40 42 43 42 39 42 47 50 49 49 53 56 57 57 55 50 47 46
34 34 34 35 35 34 33 34 36 36 37 37 38 38 38 37 34 31 29 29 27 23 19 17 17 17 18 19 21 22 24 23 21 19 17 15 14 13 12 11 10 8 8 8 9 10 10 7 6 6 7 9 8 8 9 11 15 17 18 19 20 23 26 26 27 29 31 34 36 37 39 40 41 41 39 40 45 49 50 49 52 56 57 58 58 54 49 46
34 33 34 35 35 33 33 34 35 36 36 37 37 38 38 36 34 30 30 29 25 22 19 16 16 17 18 20 22 23 25 24 22 19 16 14 13 12 11 11 10 9 8 8 8 9 9 8 7 6 6 8 8 7 7 8 12 14 15 18 20 22 24 26 27 27 29 31 34 36 37 38 39 39 38 40 44 48 50 49 50 54 57 58 59 57 53 49
34 32 33 35 34 33 32 34 35 35 36 36 37 37 37 36 32 29 30 28 24 21 17 14 17 19 19 20 23 24 24 24 22 19 16 14 13 12 11 11 10 10 9 9 10 10 9 9 8 7 7 8 9 8 8 8 10 13 14 16 19 22 23 25 27 27 28 30 33 34 34 35 37 37 36 39 44 48 50 50 49 52 57 59 59 59 57 52
32 31 33 35 34 32 32 34 35 35 35 36 37 37 37 35 31 29 29 28 24 19 15 14 17 19 19 21 24 24 23 22 20 18 16 13 11 11 10 10 9 8 9 11 12 11 10 10 9 8 9 9 9 10 10 9 11 14 15 15 18 21 22 23 24 25 27 30 31 31 32 33 34 36 35 37 43 47 50 50 50 50 54 59 60 60 59 56
31 31 35 36 33 31 32 33 34 35 35 36 37 37 36 34 30 28 29 28 24 17 13 15 18 19 21 24 25 26 24 22 19 17 14 12 10 10 9 8 8 7 6 9 11 10 9 10 9 8 10 10 11 12 11 11 11 13 14 16 17 18 20 21 22 23 25 27 29 31 32 32 31 32 34 36 40 46 50 51 51 51 53 57 59 60 60 59
31 33 36 36 33 31 32 33 34 34 35 35 36 36 36 33 30 29 29 27 24 16 11 14 18 20 23 25 26 26 24 21 20 19 15 10 8 7 6 6 6 5 6 7 8 7 7 9 9 8 9 11 11 12 11 10 10 12 13 15 16 16 18 19 20 22 23 25 28 31 33 33 31 29 31 34 39 44 49 51 52 53 53 54 56 58 59 60
32 34 37 36 34 31 32 33 33 34 34 35 36 36 35 32 29 29 29 26 22 15 11 14 17 21 24 25 25 24 23 21 20 20 16 10 6 4 3 3 3 4 5 5 4 4 4 5 6 7 8 9 10 11 10 9 10 12 13 13 14 15 16 17 19 20 22 23 26 29 32 33 32 29 28 32 37 41 46 52 53 54 54 54 55 55 57 57
33 35 37 37 34 31 32 33 33 33 34 34 35 35 34 30 27 28 28 25 20 14 12 14 18 21 24 25 24 23 23 21 19 19 15 9 5 3 1 1 2 3 5 4 2 1 1 1 4 5 6 6 8 10 9 9 10 12 13 13 13 14 15 15 17 19 21 22 24 27 30 31 31 30 28 31 36 40 44 50 54 55 56 56 56 56 56 55
34 35 37 36 33 31 31 32 32 33 33 34 34 34 32 28 27 27 28 25 18 12 13 15 18 21 22 22 23 23 22 20 19 18 14 8 4 2 1 1 2 4 5 4 2 1 1 2 3 4 5 6 8 9 10 9 10 11 13 13 15 16 15 13 14 16 19 22 23 25 27 29 29 28 29 30 34 39 42 45 51 56 57 58 58 58 57 55
34 35 37 36 33 31 31 31 32 32 33 33 33 34 31 28 26 26 27 24 16 11 14 17 20 21 21 21 21 22 21 20 18 16 14 9 5 2 2 2 3 3 4 4 3 2 2 3 4 4 5 6 7 9 10 10 10 10 11 12 14 16 15 13 12 12 15 18 22 24 25 27 28 27 28 29 32 37 41 43 47 54 58 59 60 61 60 57
34 36 37 36 32 30 31 31 31 31 32 32 32 32 29 26 24 24 25 23 15 11 13 18 21 21 21 21 22 21 21 20 17 14 12 9 5 3 3 3 3 3 4 5 5 4 3 3 3 3 5 5 5 7 8 9 8 8 9 11 13 14 14 14 13 13 14 16 19 23 25 27 27 28 28 28 30 35 39 41 44 50 58 62 61 61 62 60
34 36 37 34 30 29 30 30 30 30 31 31 31 31 28 25 23 23 24 22 15 12 13 17 20 21 21 21 21 21 21 21 18 15 12 8 4 3 3 2 3 3 3 5 6 5 4 4 4 4 6 6 6 5 6 6 6 6 7 10 12 14 14 15 15 16 16 18 19 21 24 27 28 29 30 29 29 32 37 40 42 46 54 61 63 63 64 63
33 36 36 33 29 27 28 29 29 29 30 30 30 29 27 24 22 22 23 21 14 11 13 17 20 19 19 19 19 19 20 19 18 15 13 9 5 3 2 2 2 2 2 4 6 6 6 6 6 6 5 6 6 6 6 5 5 5 6 8 10 13 15 16 17 18 18 19 19 20 22 25 28 30 31 31 30 32 35 38 40 43 48 54 60 63 64 64
33 36 34 31 28 27 27 28 28 29 28 28 29 28 26 23 21 21 22 20 14 10 13 17 20 18 16 17 17 17 18 17 16 15 13 11 9 6 4 3 2 1 2 4 6 7 6 6 7 6 5 6 6 7 7 5 5 5 5 6 9 12 15 17 18 19 19 20 20 20 21 23 26 29 31 33 34 35 37 37 38 40 44 49 54 59 62 63
34 36 32 29 27 26 27 27 27 28 28 27 28 27 25 23 21 20 22 20 14 10 13 17 19 17 13 14 15 16 17 16 14 14 13 12 11 9 7 6 4 2 2 4 5 7 6 5 5 5 6 6 5 4 5 5 5 5 4 4 6 10 14 16 17 17 18 20 21 22 22 21 23 26 31 35 37 38 39 39 39 40 42 47 52 56 60 62
34 34 30 29 27 26 26 27 27 27 27 26 27 27 25 22 21 20 20 20 15 11 12 16 18 16 13 13 14 15 15 14 12 13 13 12 11 10 9 8 6 5 5 5 5 7 7 5 5 6 7 7 7 5 3 3 4 4 3 2 2 5 8 11 13 14 16 18 18 20 21 20 20 24 29 34 38 40 40 40 41 42 43 45 49 54 59 62
34 32 30 28 27 26 26 26 26 27 26 25 26 26 24 22 21 19 19 20 16 11 11 14 17 16 13 12 13 14 13 13 12 12 12 11 11 11 10 9 8 7 7 7 7 7 8 8 8 7 7 7 6 5 4 2 2 2 2 1 0 1 2 4 6 8 10 12 13 16 15 15 19 24 27 31 36 39 42 42 42 43 45 46 49 53 57 61
33 31 30 29 27 26 26 25 26 26 25 25 25 25 24 22 21 19 19 20 16 10 10 13 16 16 14 12 12 13 12 12 12 12 11 11 11 10 10 10 9 9 8 7 7 7 9 9 9 9 9 8 7 6 6 5 3 3 3 2 2 1 1 2 2 3 5 6 8 9 6 10 20 27 27 29 33 37 41 44 45 46 46 47 49 52 56 60
31 30 30 28 27 26 26 25 26 25 25 24 24 24 23 22 21 19 19 19 16 11 9 12 14 14 13 12 11 12 12 13 13 12 12 12 12 11 10 10 9 9 9 8 8 8 10 11 11 11 12 12 11 9 9 9 6 4 3 2 1 2 2 2 2 3 4 4 5 5 4 10 19 25 27 29 32 36 40 45 48 49 49 50 51 53 56 59
29 29 29 27 26 26 25 25 25 25 24 23 23 23 22 22 21 19 19 19 16 11 9 10 13 13 13 12 11 11 13 14 14 14 13 12 12 12 11 10 9 9 9 9 9 9 10 11 11 12 12 11 10 11 11 11 10 7 5 4 3 3 2 2 2 3 3 3 6 4 6 12 15 20 26 30 35 38 42 46 50 51 52 52 54 57 58 60
28 28 27 26 25 24 23 23 24 25 24 23 23 23 22 22 21 19 17 17 16 12 9 9 11 13 12 11 11 12 13 14 15 15 15 13 12 12 11 10 10 10 9 9 9 10 11 11 12 13 11 9 10 11 10 11 11 9 8 7 7 6 5 4 3 3 2 2 5 4 7 16 17 20 27 32 38 42 44 46 49 52 53 55 56 58 60 62
29 28 28 27 25 23 22 21 23 24 23 22 22 22 21 21 19 17 16 16 15 13 9 8 9 11 11 11 11 12 13 14 15 16 15 14 12 11 10 10 10 11 10 10 9 10 11 13 14 15 14 12 12 11 9 9 10 11 12 12 11 10 8 8 6 6 7 5 4 3 7 15 18 21 27 33 39 41 42 44 46 48 51 53 56 58 60 62
30 30 29 28 25 22 21 20 22 23 22 21 21 21 20 19 17 16 14 14 14 13 10 8 7 9 10 10 11 12 13 14 15 16 16 14 12 10 10 11 11 11 11 10 10 11 12 13 14 16 16 14 13 13 12 10 10 12 14 14 14 13 10 9 9 9 10 8 6 3 2 9 17 24 26 27 30 31 32 36 39 42 44 47 51 55 58 61
30 30 30 28 25 22 21 20 21 23 21 20 20 20 19 17 16 15 14 13 13 12 10 8 7 8 9 10 11 11 12 12 14 16 16 14 11 10 10 11 10 10 10 10 11 11 12 14 15 15 15 14 14 13 12 11 12 13 13 13 15 15 12 10 11 10 10 10 9 9 9 4 10 24 27 24 23 21 22 25 30 33 36 39 41 45 50 56
31 30 29 27 24 21 20 20 21 22 21 19 19 20 19 17 15 15 14 13 13 12 11 8 7 7 8 9 10 11 11 11 12 15 15 13 9 8 10 10 10 10 9 10 11 11 12 13 14 15 14 13 14 14 13 13 14 15 15 13 14 14 12 11 11 11 12 13 15 17 18 16 9 12 19 23 23 20 21 23 26 30 34 36 38 39 41 45
32 30 27 25 23 20 18 19 19 21 20 18 18 19 19 18 16 15 15 14 13 12 11 9 7 7 6 8 9 9 10 10 11 12 13 12 8 7 8 9 9 10 10 11 11 11 12 13 14 15 14 14 14 14 15 16 16 17 16 14 13 12 11 10 10 10 12 14 17 21 20 18 16 12 9 13 16 18 19 21 24 27 30 34 37 40 42 44
31 29 26 24 21 18 17 17 18 20 18 17 18 18 17 18 17 16 15 15 14 12 12 12 9 7 6 6 7 7 8 9 10 11 12 12 9 6 6 7 8 8 9 10 11 11 12 13 14 14 14 15 15 15 15 16 16 16 16 15 13 12 9 9 9 9 11 14 17 19 19 16 14 14 15 17 19 19 19 22 24 27 29 32 36 39 42 46
28 26 25 24 21 19 17 15 16 19 17 15 17 17 16 18 18 17 15 14 14 13 13 12 10 7 7 6 6 6 6 8 9 10 11 11 8 6 4 5 5 6 7 8 9 11 12 12 12 13 14 15 15 13 14 15 16 16 15 13 12 11 10 10 10 11 13 16 16 16 15 15 16 19 19 19 18 19 21 26 29 32 33 35 37 39 42 46
Wind_Direction
319 318 318 317 318 321 322 321 318 315 311 308 305 303 301 300 299 298 298 298 298 298 297 298 298 299 300 300 300 299 298 297 295 293 291 289 286 283 280 276 272 268 265 261 258 255 253 251 250 249 247 246 244 243 242 241 240 240 240 242 243 243 244 244 244 243 243 243 240 237 234 233 232 231 232 231 231 235 241 244 241 243 246 243 240 237 232 229
322 320 318 316 317 319 319 319 318 316 313 311 308 305 303 302 301 300 300 300 299 300 300 300 301 301 302 302 301 300 299 298 296 294 293 291 289 286 283 279 276 272 268 263 259 256 253 251 249 248 247 245 244 242 241 241 240 240 240 241 242 242 244 244 244 243 243 242 241 237 234 233 231 232 233 233 233 234 240 242 239 242 246 243 239 234 229 227
325 322 319 317 316 316 316 317 316 316 314 313 311 308 306 305 304 303 302 302 302 302 302 303 303 303 303 302 301 300 300 298 297 296 294 292 289 287 285 282 279 275 271 266 262 257 254 251 249 247 246 245 243 242 240 240 239 239 239 240 240 241 242 242 242 242 241 241 241 238 233 231 231 231 232 234 234 235 240 241 237 238 242 241 235 229 226 225
327 325 322 319 317 316 316 315 315 315 314 314 313 311 309 308 307 306 305 304 303 304 305 305 305 305 304 303 302 302 301 299 298 297 295 293 291 289 286 283 280 276 272 268 264 259 255 251 248 247 246 244 243 241 240 239 238 238 238 239 239 239 240 240 240 240 240 239 239 238 233 230 230 230 230 232 232 233 239 241 236 233 234 234 229 225 222 221
329 327 325 322 320 319 317 316 316 316 315 315 313 312 311 310 308 307 306 306 306 306 307 307 307 306 305 304 304 303 302 301 300 298 296 295 293 290 287 283 280 277 273 269 264 260 256 252 249 247 245 245 243 242 240 239 238 238 238 238 238 238 238 238 238 239 239 238 238 237 233 229 229 229 228 229 230 231 236 240 237 231 231 233 231 227 222 219
330 328 326 324 322 320 319 319 319 318 317 316 314 313 312 311 310 308 308 308 308 309 309 308 308 308 307 306 306 305 304 303 302 300 298 296 294 291 287 285 282 278 274 270 266 261 257 253 250 248 246 246 245 243 241 239 238 238 237 237 236 237 237 236 236 237 237 237 237 236 232 228 228 227 227 227 228 228 232 237 235 232 234 234 232 230 225 221
332 331 328 327 325 323 322 322 321 320 319 318 316 315 314 313 312 311 311 310 311 310 310 310 310 309 309 309 308 307 306 304 303 302 301 299 296 294 291 288 285 281 277 273 269 264 259 255 252 249 247 246 246 244 242 240 239 238 237 236 235 236 236 236 236 235 236 236 236 236 232 228 227 226 224 225 225 225 229 232 230 230 233 231 227 227 224 222
336 335 333 331 329 328 326 325 324 322 321 319 318 317 316 315 314 313 312 312 312 312 312 312 312 312 311 311 310 309 307 307 306 304 304 304 302 300 298 295 290 285 280 276 272 268 263 258 253 250 247 245 245 244 243 242 241 240 237 236 235 235 235 235 235 234 235 235 236 236 233 228 226 225 223 223 223 223 227 230 228 228 229 229 224 221 220 221
338 337 335 334 333 331 329 327 325 323 321 320 319 318 317 316 314 314 313 313 313 313 314 314 314 314 313 312 311 310 309 309 308 307 308 310 308 307 306 301 294 288 282 278 275 272 268 262 257 252 248 246 244 243 242 241 240 239 238 237 236 236 235 234 234 233 233 234 235 235 234 230 227 226 222 222 223 224 227 228 229 229 228 229 224 219 220 221
339 337 336 335 334 332 330 328 327 324 323 321 320 319 318 316 316 315 315 315 316 316 316 316 316 315 315 314 312 311 312 312 311 311 313 314 312 312 313 310 302 294 286 281 277 275 271 266 261 256 251 248 244 242 240 239 238 238 238 237 237 236 236 234 234 233 233 233 234 234 233 230 227 225 221 220 223 223 225 226 227 230 228 227 225 222 223 224
338 337 336 336 334 333 331 330 328 326 325 324 322 321 319 318 318 318 317 318 318 319 318 318 317 317 315 314 312 312 314 315 315 316 317 317 314 315 316 314 309 301 294 288 282 278 274 270 265 259 254 250 246 242 239 236 236 235 235 236 237 237 236 235 234 233 233 233 232 233 233 230 227 224 219 219 222 221 222 223 224 228 229 226 225 224 222 224
338 337 336 336 335 333 332 330 329 328 326 325 323 322 321 321 320 320 319 320 321 321 320 319 318 317 315 313 312 312 314 317 320 321 321 319 317 317 316 311 306 302 297 292 287 282 278 275 270 263 257 252 248 242 238 234 232 233 234 235 236 236 235 235 234 233 233 233 233 233 232 230 225 220 218 219 222 221 221 221 221 225 229 228 226 226 222 222
337 337 337 336 335 334 332 331 330 329 327 326 325 324 323 323 322 322 322 323 323 323 321 320 319 317 315 313 311 311 315 321 324 325 326 324 320 318 314 308 302 299 297 293 289 285 283 280 274 266 261 256 251 244 238 234 230 230 232 233 233 235 234 233 234 232 232 232 233 234 233 229 222 219 221 220 220 221 220 220 219 220 226 229 228 228 225 222
337 337 337 336 335 334 332 331 331 330 328 327 327 326 325 325 324 324 325 326 325 324 322 320 319 317 314 311 309 310 316 323 327 329 329 327 322 317 312 306 301 299 297 293 289 285 284 283 277 270 264 259 255 248 240 234 229 227 228 230 231 233 233 231 231 232 231 230 231 234 233 228 221 220 222 221 219 221 219 218 217 216 221 226 228 228 226 225
337 337 336 336 335 334 333 333 332 331 330 329 328 327 327 326 325 326 327 327 326 324 323 321 320 316 312 308 306 309 316 323 328 329 329 328 322 315 310 304 300 300 299 295 290 289 288 286 281 275 268 262 257 252 244 236 229 225 225 227 229 230 230 230 229 230 230 229 229 232 232 226 221 220 221 220 219 220 219 217 216 214 217 223 228 230 227 225
336 337 336 336 335 334 334 334 333 332 332 330 329 329 328 327 328 329 329 328 326 325 324 323 320 314 309 305 302 307 316 323 326 327 327 326 319 313 309 304 302 301 299 296 294 295 295 293 290 283 276 267 257 252 247 240 233 226 222 223 225 227 227 228 228 227 228 227 226 229 230 227 223 219 219 220 219 219 218 216 215 214 214 218 226 230 228 224
335 336 336 335 335 335 336 335 333 334 333 331 330 330 329 330 330 330 330 329 328 327 326 324 319 312 307 303 300 307 316 322 324 323 323 321 316 310 307 305 304 302 298 297 295 296 297 297 297 293 286 275 262 250 243 239 236 229 222 220 222 223 224 224 226 226 226 225 224 227 230 229 225 218 215 218 219 220 219 215 213 213 213 215 221 228 230 225
334 336 336 335 335 336 336 335 334 334 333 332 331 331 331 332 332 332 331 331 330 330 327 323 317 310 307 301 298 306 313 318 320 320 318 316 313 309 307 307 308 305 304 301 294 292 294 295 297 298 293 282 267 250 236 232 232 229 223 219 219 220 220 220 223 225 225 224 222 224 229 230 227 219 213 215 217 219 219 215 211 212 213 214 217 224 229 228
333 335 336 335 335 336 336 335 334 334 333 333 333 332 333 334 333 333 333 333 333 331 327 323 316 310 307 300 296 304 310 314 318 316 315 315 312 310 309 309 310 311 310 303 291 289 291 294 300 305 303 294 278 255 233 222 222 225 224 220 217 218 218 217 220 224 225 223 220 221 226 228 228 221 212 212 216 217 218 214 209 210 214 215 216 221 226 228
332 335 336 335 335 336 335 334 334 334 334 333 334 334 335 334 334 334 335 335 333 331 327 322 315 310 308 304 300 304 310 314 316 314 313 314 311 311 311 308 314 319 316 301 290 289 291 298 310 316 314 308 291 265 237 222 217 219 222 220 217 216 217 216 218 222 224 222 219 221 224 226 226 220 211 211 214 216 216 213 209 208 211 215 216 219 224 226
331 334 335 335 335 336 334 334 334 334 334 334 335 335 335 335 336 337 337 336 334 332 329 322 315 312 311 308 306 309 313 314 313 311 311 313 311 313 311 308 316 322 311 295 288 289 292 302 318 319 316 309 293 266 238 225 217 216 218 218 217 215 215 217 217 220 222 220 220 222 224 226 226 221 211 210 213 214 215 213 209 208 209 212 215 218 222 222
331 332 334 335 335 335 334 333 334 334 335 335 336 336 336 337 338 338 337 336 335 334 329 322 317 315 312 309 310 312 314 313 312 311 311 312 312 312 309 307 315 311 286 277 277 282 290 304 317 318 315 309 294 268 239 224 217 215 216 216 216 215 214 216 217 218 219 219 220 222 223 225 227 221 211 208 212 213 214 213 210 209 210 210 211 214 219 220
331 331 332 334 335 335 333 333 334 334 335 337 337 337 337 338 340 339 337 338 338 335 329 324 319 316 311 309 311 313 314 314 313 313 315 315 311 308 306 305 307 294 276 272 271 278 289 305 313 316 316 311 303 285 255 233 220 215 217 217 217 216 212 213 216 217 217 218 221 222 221 222 225 222 211 207 211 212 212 212 210 210 211 211 210 211 215 218
331 331 331 334 336 335 332 333 335 335 336 337 337 337 338 340 342 339 339 341 340 336 330 325 321 319 315 313 315 317 318 318 317 316 317 316 309 305 302 298 297 291 284 283 282 289 297 300 304 311 313 310 311 302 277 248 229 220 220 219 217 218 212 209 212 215 217 219 220 222 221 220 222 222 213 206 210 213 211 210 211 210 211 212 212 211 212 215
330 331 332 334 336 335 332 333 335 335 336 338 338 338 340 342 343 340 340 342 342 337 331 326 323 323 321 320 323 324 323 322 321 317 314 313 308 302 299 293 291 291 289 291 291 295 301 294 289 296 300 303 308 305 290 264 245 234 226 220 217 220 217 211 210 213 216 219 221 222 222 221 220 220 214 206 208 213 211 209 211 211 212 213 213 213 214 216
330 331 333 335 335 333 332 333 334 335 337 338 339 340 342 344 343 341 341 342 343 340 333 329 327 329 332 332 332 330 326 325 324 318 312 311 308 303 301 296 288 282 279 285 287 291 298 291 278 275 277 285 290 292 288 271 259 249 235 226 222 222 222 218 216 215 215 216 219 222 223 222 220 218 214 206 206 211 212 209 210 212 213 215 215 215 216 218
331 332 335 336 334 332 332 333 334 335 337 339 340 341 343 344 343 342 342 342 345 341 333 332 333 336 341 340 335 330 328 327 325 319 313 314 312 306 305 301 289 276 270 274 279 284 291 287 275 266 261 266 275 280 276 268 263 255 246 238 229 225 225 224 221 220 218 216 218 221 223 223 220 217 214 208 205 209 211 210 209 211 213 216 218 217 217 219
333 335 336 335 333 332 332 333 334 336 338 340 341 342 344 344 343 343 343 343 346 343 334 335 339 339 342 340 336 333 332 330 325 320 318 320 319 311 306 305 296 282 274 271 275 281 284 281 272 263 256 254 260 265 264 259 253 249 250 245 234 227 226 227 226 224 222 219 219 222 222 221 220 217 213 209 206 208 210 210 209 210 213 216 219 220 220 220
334 336 336 334 333 332 333 334 335 336 339 341 342 343 344 345 343 344 346 344 344 346 338 338 341 339 340 341 339 336 335 333 329 327 328 327 322 315 312 316 310 299 289 277 278 284 281 271 261 251 249 246 246 251 253 248 240 240 247 246 241 235 230 229 228 227 225 221 220 223 223 220 219 216 212 210 208 207 209 210 209 209 212 215 219 222 222 220
336 337 336 334 333 333 334 335 336 337 340 341 342 343 344 346 345 345 347 344 343 349 346 338 339 339 342 344 340 337 338 338 335 336 340 334 322 315 314 323 329 320 312 295 286 288 281 264 246 234 240 242 243 246 248 241 231 230 237 242 244 243 238 234 232 230 229 225 222 223 224 223 220 214 209 209 209 208 208 211 210 209 211 214 218 222 223 222
336 336 336 334 332 332 334 335 336 338 340 341 342 344 345 347 346 345 347 345 342 347 348 340 340 343 345 345 341 339 343 344 340 340 343 339 329 323 308 320 342 337 332 326 304 299 300 264 224 219 236 244 249 254 257 248 233 226 227 232 238 242 242 240 236 233 230 228 227 225 226 226 222 216 210 208 208 208 208 210 211 210 210 213 217 221 223 223
335 335 336 334 331 331 333 335 337 338 340 342 343 344 346 347 346 346 346 346 344 344 346 344 345 348 348 346 344 345 350 350 343 343 346 345 342 333 299 307 339 355 4 8 359 336 350 191 192 211 237 253 261 267 272 265 249 238 233 229 229 235 242 243 241 236 229 227 228 227 227 228 225 220 216 211 209 209 209 210 212 213 213 214 216 220 222 223
333 335 335 333 329 330 332 335 337 338 340 342 343 345 346 346 347 347 345 346 346 343 345 347 350 355 352 349 351 354 358 357 348 349 354 358 5 345 285 308 330 354 12 20 9 316 213 186 203 230 262 275 275 274 274 270 261 253 246 239 234 235 240 246 247 240 231 229 229 227 226 228 225 220 218 215 210 210 211 211 212 215 216 216 216 219 220 222
330 333 334 332 328 328 331 334 336 338 340 341 343 345 346 347 348 346 345 347 348 344 346 349 354 2 3 0 2 4 6 4 358 359 4 6 15 23 336 338 338 342 351 356 345 320 264 244 245 254 277 282 276 270 265 262 260 255 249 244 241 241 241 243 243 237 232 231 232 230 225 224 222 217 216 216 212 211 213 213 214 215 217 218 218 218 220 221
327 331 334 331 327 327 330 334 336 338 340 341 343 345 346 347 346 346 348 348 347 348 351 351 357 7 11 9 10 10 11 11 9 13 19 17 16 26 11 351 349 348 339 333 331 325 307 288 266 257 268 267 264 264 253 249 253 251 244 237 236 239 240 240 236 229 226 227 230 231 226 222 218 212 211 213 211 212 214 216 216 215 216 218 220 220 220 222
326 330 332 330 326 326 329 333 336 338 340 341 343 345 346 346 345 347 351 349 346 350 354 355 1 10 14 12 12 13 14 14 15 22 32 31 17 7 10 353 350 359 340 324 322 319 311 300 280 259 256 252 255 259 250 249 256 253 242 233 228 228 230 232 232 228 226 226 228 230 227 223 219 210 207 209 211 212 214 217 219 218 217 218 220 222 222 223
325 329 331 329 327 326 328 333 337 338 340 342 343 344 345 346 346 349 352 352 349 349 353 358 5 12 14 13 13 15 16 14 14 24 35 41 41 20 7 348 340 350 319 315 321 317 311 307 300 294 284 271 266 267 265 266 277 283 272 250 234 227 225 228 230 230 231 231 230 229 228 225 219 210 206 208 211 212 214 217 219 221 221 220 221 222 224 225
324 328 330 330 328 326 328 333 337 337 339 342 343 343 345 345 347 351 353 354 351 348 354 2 7 10 12 13 16 19 20 14 12 21 31 39 45 41 34 21 352 320 284 309 320 319 317 315 310 314 313 295 287 287 283 277 280 289 290 268 243 230 225 226 230 232 233 236 235 232 230 226 221 214 207 208 211 212 214 217 220 223 225 224 223 223 224 225
325 328 330 330 327 325 328 333 336 336 338 342 343 343 345 345 348 353 355 354 351 349 357 3 6 7 9 13 17 22 23 19 16 21 28 33 39 41 42 37 22 357 318 315 320 323 329 330 322 333 342 333 329 317 299 291 284 283 283 268 248 236 229 228 233 235 236 237 237 235 231 225 225 223 215 211 212 214 215 217 219 224 228 228 226 225 225 225
327 329 330 330 326 326 329 333 335 335 337 341 343 343 345 346 348 353 356 354 352 351 356 1 3 4 5 11 18 21 21 20 24 29 31 34 39 42 44 40 30 14 353 343 338 337 342 339 331 340 346 348 360 5 338 302 285 279 276 256 220 228 233 235 241 244 245 247 247 244 237 227 227 230 225 219 217 216 218 219 220 224 228 230 230 229 228 227
327 330 331 330 326 326 329 330 333 335 336 340 343 343 346 347 346 352 358 356 351 349 352 357 2 2 2 8 17 21 16 12 20 29 32 34 38 44 49 47 39 29 12 359 350 346 350 351 352 357 356 352 360 10 13 352 312 308 318 339 68 165 204 229 245 250 254 258 260 260 250 227 224 232 231 227 223 220 220 222 222 224 226 230 232 232 231 230
328 330 332 330 326 325 326 327 332 335 335 339 344 344 346 346 345 352 0 356 349 345 347 354 359 1 360 3 14 23 18 10 12 15 20 27 30 39 49 51 48 45 33 19 9 7 10 14 23 30 27 22 18 13 14 16 7 357 3 4 341 326 270 235 249 251 255 259 261 265 248 199 211 224 228 228 228 226 225 224 224 225 226 228 230 232 233 232
326 328 329 329 326 325 323 325 331 335 335 339 344 344 345 346 345 352 359 355 347 341 343 351 356 357 357 358 7 20 20 16 14 8 7 15 18 23 36 45 48 48 42 32 25 25 26 29 37 39 32 25 23 21 18 18 16 3 0 359 312 296 280 264 262 256 263 273 269 261 192 182 205 217 222 225 227 228 228 226 225 224 224 225 226 228 230 231
324 326 327 327 327 324 322 324 329 333 335 339 343 344 345 346 347 352 355 351 345 339 338 346 350 352 354 354 360 11 15 17 19 14 9 12 15 13 15 26 36 39 39 35 32 32 30 27 28 29 26 19 17 22 17 11 10 5 1 0 350 346 326 305 301 283 278 269 271 264 154 167 196 211 219 225 226 227 228 228 226 224 222 222 222 223 225 227
326 327 327 327 327 324 321 323 328 332 335 337 341 345 346 346 348 350 349 347 343 337 331 336 343 346 348 349 353 359 6 14 18 15 11 13 16 13 7 14 26 32 34 33 32 34 28 20 13 11 15 16 12 11 0 348 349 350 351 355 356 360 356 347 344 330 330 282 286 290 174 179 195 208 216 224 229 229 229 229 227 225 224 223 222 222 223 225
327 328 328 327 327 324 319 321 328 333 334 335 340 346 346 344 346 347 343 341 342 338 324 320 333 339 340 340 341 346 355 8 15 14 11 12 16 16 11 14 24 33 39 38 34 32 24 17 10 8 16 20 12 10 3 350 345 339 338 346 359 6 4 357 355 350 355 11 13 342 205 197 205 215 220 226 233 236 235 234 234 234 231 229 226 225 225 225
326 327 327 326 325 323 319 320 328 332 333 333 339 345 346 342 342 343 340 336 341 342 327 310 315 327 334 335 337 345 355 5 10 10 9 11 16 18 17 19 25 32 37 35 31 28 22 17 14 15 21 20 12 13 11 0 349 337 336 348 2 6 4 357 351 353 5 24 43 36 213 197 207 223 233 236 239 244 244 243 244 245 244 241 237 234 232 230
324 324 325 323 322 321 318 318 324 330 331 333 339 343 344 342 341 340 338 335 339 344 335 314 302 311 328 336 341 354 2 5 8 6 4 7 12 16 21 26 31 34 36 34 29 25 20 16 16 20 21 17 13 13 6 354 348 346 349 357 360 358 356 352 350 1 21 26 16 355 346 336 223 229 241 248 251 256 257 253 253 254 253 252 249 246 242 239
322 322 321 319 318 318 316 315 320 326 329 332 339 342 340 342 343 340 337 337 339 343 341 325 296 293 315 330 340 355 4 7 11 7 360 1 8 18 27 33 43 49 45 39 31 23 16 13 15 16 15 14 16 11 5 3 1 359 0 359 356 357 358 354 355 11 23 12 352 341 341 346 327 260 248 251 260 270 270 266 265 262 259 257 256 255 253 249
321 319 317 315 315 314 310 310 316 323 328 332 339 343 339 340 345 344 339 340 340 339 339 333 304 281 295 318 329 347 0 7 13 8 357 356 5 26 37 42 53 57 47 36 29 22 18 14 9 7 7 10 14 10 8 11 11 8 8 6 6 10 7 356 358 13 19 7 349 341 342 346 346 338 313 292 294 298 293 287 282 275 269 265 261 259 257 255
320 319 318 316 315 311 305 306 313 320 327 332 337 342 341 339 345 349 344 340 339 334 335 337 323 286 272 292 310 331 352 1 8 9 360 356 2 22 42 50 54 53 42 35 33 27 23 16 6 2 2 5 10 12 12 14 15 15 15 15 18 22 10 355 359 8 10 4 351 338 339 346 346 343 339 329 323 319 312 306 300 292 285 278 273 269 265 261
321 321 322 320 317 313 307 306 313 319 325 333 337 343 345 342 345 350 347 340 337 334 334 340 334 298 264 264 284 309 336 350 2 9 1 357 4 18 34 44 46 40 32 33 37 34 26 18 9 4 3 4 10 16 17 16 17 19 19 17 20 26 16 356 353 358 357 356 351 343 342 346 342 334 330 327 324 321 317 315 310 302 293 286 280 276 269 262
Height
5789 5787 5785 5784 5782 5781 5779 5778 5776 5774 5773 5771 5770 5768 5767 5765 5764 5762 5761 5760 5758 5757 5755 5753 5751 5750 5748 5746 5745 5743 5741 5740 5738 5736 5734 5732 5731 5730 5729 5728 5727 5726 5726 5726 5726 5727 5727 5728 5729 5729 5730 5731 5733 5734 5735 5736 5738 5738 5740 5741 5743 5748 5751 5755 5759 5762 5766 5770 5775 5780 5784 5787 5791 5793 5794 5796 5797 5799 5799 5801 5805 5807 5808 5810 5814 5815 5817 5819
5787 5785 5783 5782 5780 5779 5777 5775 5774 5772 5770 5769 5767 5765 5764 5762 5761 5759 5758 5756 5754 5752 5751 5749 5747 5745 5743 5741 5739 5737 5735 5733 5731 5729 5727 5725 5723 5722 5721 5720 5719 5719 5718 5718 5718 5719 5719 5720 5721 5722 5723 5724 5726 5727 5727 5729 5731 5732 5734 5735 5739 5745 5748 5751 5755 5758 5761 5765 5769 5774 5780 5783 5786 5789 5789 5791 5793 5795 5795 5797 5801 5804 5805 5807 5810 5812 5814 5816
5785 5783 5781 5780 5778 5777 5775 5773 5771 5770 5768 5766 5764 5763 5761 5759 5757 5756 5754 5752 5750 5748 5746 5744 5742 5740 5738 5735 5733 5731 5729 5726 5725 5722 5720 5718 5715 5714 5713 5712 5711 5711 5711 5710 5711 5711 5711 5712 5713 5714 5715 5716 5718 5719 5720 5722 5724 5726 5727 5729 5736 5742 5742 5745 5748 5752 5757 5760 5763 5768 5775 5779 5782 5784 5785 5787 5790 5791 5791 5793 5797 5801 5804 5805 5807 5809 5811 5813
5783 5781 5780 5778 5776 5774 5773 5771 5769 5767 5765 5764 5762 5760 5758 5756 5754 5752 5750 5748 5746 5744 5742 5739 5737 5735 5733 5730 5727 5725 5722 5720 5718 5716 5713 5711 5709 5707 5706 5705 5704 5703 5703 5703 5703 5703 5703 5704 5705 5706 5707 5709 5710 5712 5713 5714 5716 5718 5720 5726 5733 5735 5734 5738 5742 5746 5751 5755 5758 5762 5770 5774 5776 5780 5781 5784 5785 5787 5788 5789 5794 5799 5802 5803 5805 5807 5808 5809
5782 5780 5778 5776 5774 5772 5770 5768 5767 5765 5763 5761 5759 5757 5755 5753 5751 5749 5746 5744 5742 5740 5737 5735 5733 5730 5727 5724 5721 5718 5716 5713 5711 5709 5707 5705 5703 5701 5699 5698 5697 5697 5696 5696 5696 5696 5697 5697 5698 5699 5700 5702 5703 5705 5707 5707 5709 5711 5716 5723 5728 5727 5727 5732 5736 5741 5745 5749 5752 5757 5764 5769 5771 5775 5778 5780 5781 5784 5787 5788 5791 5796 5799 5800 5802 5805 5805 5806
5780 5778 5776 5774 5772 5770 5768 5766 5764 5762 5760 5758 5756 5754 5752 5750 5747 5745 5743 5740 5738 5736 5733 5730 5728 5725 5722 5718 5715 5712 5710 5707 5705 5703 5701 5699 5697 5696 5694 5693 5692 5691 5691 5690 5691 5691 5691 5691 5691 5692 5694 5695 5696 5698 5700 5701 5703 5706 5712 5717 5719 5719 5720 5726 5731 5735 5740 5743 5747 5751 5758 5763 5767 5771 5774 5776 5778 5782 5784 5785 5788 5792 5795 5796 5797 5801 5803 5804
5778 5776 5774 5772 5770 5768 5766 5764 5762 5760 5757 5755 5753 5751 5749 5746 5744 5741 5739 5737 5734 5732 5729 5725 5722 5719 5716 5713 5710 5707 5704 5702 5700 5698 5697 5695 5693 5691 5690 5689 5688 5686 5686 5685 5685 5685 5685 5685 5686 5686 5688 5689 5690 5692 5693 5695 5697 5700 5706 5709 5710 5711 5714 5721 5726 5730 5734 5738 5742 5746 5752 5759 5762 5765 5769 5771 5774 5778 5779 5781 5785 5788 5791 5791 5793 5796 5799 5802
5777 5775 5772 5770 5768 5766 5764 5761 5759 5757 5755 5752 5750 5748 5745 5743 5740 5738 5735 5733 5730 5727 5724 5721 5717 5714 5711 5708 5704 5702 5699 5697 5696 5694 5693 5691 5689 5687 5686 5684 5683 5682 5681 5681 5680 5680 5679 5680 5680 5681 5682 5682 5684 5685 5687 5690 5692 5695 5700 5702 5702 5704 5710 5716 5720 5725 5729 5733 5737 5740 5747 5754 5757 5761 5764 5767 5770 5774 5776 5779 5782 5785 5788 5789 5791 5794 5795 5799
5776 5773 5771 5768 5766 5764 5761 5759 5757 5754 5752 5749 5747 5745 5742 5740 5737 5734 5732 5729 5726 5723 5719 5716 5713 5709 5706 5703 5700 5698 5696 5694 5692 5691 5690 5688 5686 5684 5682 5681 5679 5678 5677 5677 5676 5675 5675 5675 5675 5676 5676 5677 5679 5679 5681 5685 5686 5689 5693 5694 5696 5700 5705 5710 5714 5719 5724 5728 5732 5736 5742 5748 5753 5757 5761 5764 5767 5771 5774 5776 5779 5782 5785 5787 5790 5792 5793 5796
5774 5772 5769 5767 5764 5762 5759 5757 5754 5752 5749 5747 5744 5742 5739 5736 5734 5731 5728 5725 5722 5718 5715 5712 5708 5705 5702 5699 5696 5694 5693 5691 5689 5688 5687 5685 5683 5681 5679 5677 5675 5674 5673 5673 5672 5672 5671 5670 5671 5671 5671 5672 5673 5674 5676 5679 5681 5684 5686 5688 5692 5695 5700 5705 5709 5714 5718 5722 5727 5731 5736 5742 5748 5752 5757 5762 5764 5767 5770 5773 5776 5778 5781 5784 5787 5789 5792 5795
5773 5770 5768 5765 5762 5760 5757 5755 5752 5749 5746 5744 5741 5739 5736 5733 5731 5728 5725 5722 5718 5715 5711 5707 5704 5701 5698 5696 5693 5692 5690 5688 5687 5685 5684 5682 5680 5678 5676 5674 5672 5671 5670 5669 5669 5668 5667 5667 5667 5667 5667 5667 5668 5669 5670 5673 5676 5678 5679 5683 5687 5690 5695 5700 5705 5710 5714 5717 5722 5726 5729 5736 5743 5747 5755 5759 5760 5763 5766 5769 5771 5774 5777 5781 5784 5787 5790 5793
5771 5768 5766 5763 5760 5758 5755 5753 5749 5746 5744 5741 5739 5736 5733 5731 5728 5725 5721 5718 5714 5711 5707 5703 5700 5698 5695 5693 5691 5689 5688 5686 5684 5683 5681 5679 5678 5676 5674 5672 5670 5668 5667 5667 5666 5665 5664 5664 5663 5663 5663 5663 5663 5664 5665 5667 5670 5672 5675 5679 5682 5685 5690 5695 5701 5706 5709 5712 5717 5720 5723 5729 5738 5746 5752 5754 5755 5759 5762 5764 5768 5771 5774 5778 5782 5784 5788 5791
5769 5767 5764 5761 5758 5755 5753 5750 5747 5744 5741 5739 5736 5734 5731 5728 5725 5721 5718 5714 5711 5707 5703 5700 5697 5695 5692 5690 5689 5687 5686 5684 5682 5680 5679 5677 5675 5673 5671 5669 5668 5666 5665 5664 5663 5662 5661 5661 5660 5659 5659 5660 5660 5660 5661 5662 5665 5668 5671 5674 5677 5681 5686 5692 5696 5700 5704 5708 5712 5714 5717 5724 5736 5743 5745 5748 5752 5754 5757 5761 5765 5769 5771 5775 5779 5782 5785 5787
5767 5765 5762 5759 5756 5753 5751 5748 5745 5742 5739 5736 5734 5731 5728 5725 5721 5718 5714 5710 5707 5704 5700 5697 5694 5692 5690 5688 5687 5685 5684 5682 5680 5678 5676 5674 5672 5670 5669 5667 5665 5664 5663 5661 5660 5660 5659 5658 5658 5657 5656 5656 5656 5657 5657 5658 5661 5663 5665 5669 5673 5677 5682 5687 5691 5694 5699 5704 5707 5709 5711 5720 5732 5737 5738 5745 5748 5749 5753 5756 5760 5765 5768 5772 5775 5778 5782 5785
5766 5763 5760 5757 5754 5751 5748 5745 5742 5740 5737 5734 5731 5728 5725 5722 5718 5714 5711 5707 5704 5700 5697 5694 5691 5689 5687 5686 5684 5683 5682 5680 5678 5676 5674 5672 5670 5668 5666 5665 5663 5662 5660 5659 5658 5657 5657 5656 5655 5654 5653 5653 5653 5654 5654 5655 5657 5659 5662 5665 5669 5673 5678 5682 5686 5690 5695 5699 5703 5703 5706 5716 5726 5730 5735 5741 5743 5745 5749 5752 5757 5761 5765 5769 5772 5775 5779 5782
5764 5761 5758 5755 5752 5749 5746 5743 5740 5738 5735 5732 5729 5726 5722 5719 5715 5711 5708 5704 5701 5697 5694 5691 5689 5687 5685 5684 5682 5681 5680 5678 5676 5674 5672 5670 5668 5666 5665 5663 5661 5660 5658 5657 5656 5655 5655 5654 5653 5652 5651 5651 5651 5651 5652 5653 5654 5656 5659 5661 5664 5669 5673 5677 5682 5686 5690 5693 5696 5700 5703 5711 5719 5726 5732 5736 5738 5741 5743 5748 5753 5757 5762 5766 5769 5771 5775 5779
5762 5759 5757 5754 5750 5747 5744 5741 5738 5735 5733 5730 5727 5723 5720 5716 5712 5709 5705 5702 5698 5695 5692 5689 5686 5684 5683 5682 5680 5679 5677 5675 5674 5672 5670 5668 5666 5664 5662 5661 5659 5658 5656 5655 5654 5654 5653 5652 5651 5650 5649 5649 5648 5648 5649 5651 5652 5654 5656 5658 5661 5664 5668 5673 5678 5681 5684 5687 5692 5698 5699 5704 5712 5721 5727 5731 5734 5737 5739 5744 5749 5753 5758 5763 5766 5768 5771 5776
5760 5757 5755 5752 5749 5745 5742 5739 5736 5733 5730 5727 5724 5721 5717 5713 5710 5706 5702 5699 5695 5692 5689 5687 5685 5683 5681 5680 5678 5677 5675 5673 5672 5670 5668 5666 5664 5662 5660 5659 5657 5656 5655 5654 5653 5652 5651 5650 5649 5648 5647 5647 5646 5646 5647 5648 5650 5651 5653 5655 5658 5661 5665 5670 5674 5676 5679 5683 5690 5694 5694 5698 5706 5714 5721 5726 5729 5732 5736 5742 5746 5750 5755 5759 5763 5765 5768 5773
5758 5755 5753 5750 5746 5743 5740 5737 5734 5730 5728 5725 5722 5718 5714 5711 5707 5703 5699 5696 5692 5689 5687 5685 5683 5681 5679 5678 5676 5675 5674 5672 5670 5668 5666 5664 5662 5660 5658 5656 5655 5654 5653 5652 5651 5650 5649 5648 5648 5647 5646 5645 5645 5645 5645 5646 5647 5649 5650 5653 5656 5658 5662 5666 5670 5673 5675 5680 5687 5690 5690 5694 5699 5708 5717 5722 5724 5728 5732 5737 5742 5747 5751 5755 5759 5762 5765 5770
5756 5753 5751 5748 5744 5741 5738 5735 5732 5728 5725 5722 5719 5715 5712 5708 5705 5701 5697 5693 5690 5688 5685 5683 5681 5679 5677 5676 5674 5673 5672 5670 5669 5667 5665 5662 5660 5658 5656 5655 5654 5653 5652 5651 5650 5649 5648 5647 5647 5646 5645 5644 5644 5644 5644 5643 5644 5646 5648 5651 5654 5656 5660 5664 5667 5670 5673 5678 5684 5686 5687 5689 5693 5703 5714 5718 5720 5724 5728 5733 5738 5742 5747 5751 5756 5759 5762 5767
5755 5752 5749 5746 5742 5739 5736 5733 5729 5726 5723 5720 5717 5713 5710 5706 5702 5698 5695 5691 5689 5686 5683 5681 5679 5677 5676 5674 5673 5671 5670 5668 5667 5665 5662 5660 5658 5656 5654 5653 5652 5652 5651 5650 5649 5648 5647 5647 5646 5646 5645 5644 5643 5643 5643 5643 5644 5645 5647 5649 5652 5655 5658 5661 5665 5668 5671 5676 5680 5682 5684 5686 5690 5700 5709 5713 5717 5720 5725 5730 5735 5739 5743 5748 5752 5756 5759 5763
5753 5750 5747 5744 5740 5737 5734 5731 5727 5724 5721 5718 5714 5711 5707 5704 5700 5696 5693 5690 5687 5684 5681 5679 5677 5676 5675 5673 5671 5670 5669 5666 5665 5663 5660 5658 5656 5654 5653 5652 5651 5651 5650 5649 5648 5647 5646 5646 5646 5645 5644 5644 5643 5643 5643 5643 5644 5645 5646 5648 5650 5653 5656 5659 5663 5666 5669 5673 5676 5677 5681 5684 5688 5696 5704 5709 5713 5717 5722 5727 5732 5736 5740 5744 5749 5753 5756 5760
5751 5748 5745 5742 5739 5735 5732 5729 5725 5721 5719 5715 5712 5709 5705 5701 5698 5694 5691 5688 5685 5682 5680 5677 5676 5675 5673 5672 5670 5669 5667 5665 5662 5660 5658 5656 5654 5652 5651 5651 5651 5650 5649 5648 5647 5646 5645 5645 5645 5645 5644 5644 5643 5643 5643 5643 5644 5644 5645 5647 5649 5652 5655 5658 5661 5663 5666 5669 5671 5673 5678 5682 5685 5692 5700 5706 5710 5713 5719 5724 5729 5733 5736 5741 5746 5749 5753 5757
5749 5746 5743 5740 5736 5733 5730 5727 5723 5720 5717 5714 5710 5707 5703 5699 5695 5692 5689 5686 5683 5680 5678 5676 5675 5674 5672 5671 5669 5667 5665 5663 5660 5658 5656 5654 5653 5651 5650 5650 5650 5649 5648 5647 5646 5645 5645 5645 5645 5644 5644 5644 5643 5643 5644 5644 5644 5644 5646 5647 5649 5651 5653 5656 5658 5661 5663 5665 5668 5671 5675 5679 5683 5688 5697 5703 5706 5709 5715 5720 5724 5729 5733 5738 5742 5746 5750 5753
5748 5744 5741 5737 5734 5731 5728 5725 5721 5718 5715 5712 5708 5705 5701 5697 5694 5690 5687 5684 5682 5679 5677 5676 5674 5673 5671 5669 5668 5665 5663 5661 5658 5656 5654 5653 5651 5650 5650 5649 5648 5648 5647 5646 5646 5645 5645 5645 5644 5644 5644 5644 5643 5644 5644 5645 5645 5645 5646 5647 5649 5650 5652 5654 5656 5658 5660 5663 5666 5669 5673 5677 5681 5685 5693 5699 5703 5706 5711 5716 5721 5726 5730 5734 5738 5743 5746 5750
5746 5743 5739 5735 5732 5729 5726 5723 5720 5717 5714 5710 5707 5703 5699 5695 5692 5689 5686 5683 5680 5678 5676 5675 5673 5672 5670 5668 5666 5663 5661 5658 5656 5654 5653 5651 5650 5649 5648 5648 5647 5647 5646 5646 5645 5644 5644 5644 5644 5644 5644 5643 5643 5644 5644 5645 5645 5645 5646 5647 5648 5650 5652 5654 5655 5656 5659 5661 5664 5667 5671 5675 5679 5684 5689 5695 5699 5702 5707 5713 5718 5722 5727 5730 5735 5740 5744 5747
5743 5740 5737 5734 5730 5727 5725 5721 5718 5715 5712 5709 5705 5701 5697 5694 5690 5687 5684 5681 5679 5677 5675 5674 5672 5670 5669 5667 5665 5662 5659 5657 5655 5653 5651 5650 5649 5648 5647 5646 5646 5646 5646 5645 5644 5644 5643 5643 5643 5643 5643 5643 5643 5643 5644 5645 5645 5646 5646 5647 5648 5649 5650 5652 5654 5656 5658 5660 5663 5665 5668 5672 5677 5682 5686 5691 5696 5699 5703 5709 5714 5718 5723 5727 5731 5736 5740 5744
5741 5738 5735 5732 5729 5726 5723 5720 5716 5713 5710 5707 5703 5700 5696 5693 5689 5686 5683 5680 5678 5676 5674 5673 5671 5669 5668 5667 5664 5661 5658 5655 5653 5651 5650 5649 5648 5647 5646 5645 5645 5645 5645 5644 5643 5643 5643 5642 5642 5643 5643 5643 5643 5643 5643 5644 5645 5645 5646 5647 5647 5648 5650 5651 5653 5655 5657 5660 5662 5663 5666 5670 5675 5679 5684 5689 5693 5696 5700 5705 5710 5715 5719 5723 5727 5731 5736 5740
5739 5736 5733 5730 5727 5724 5722 5718 5715 5711 5708 5705 5702 5698 5695 5692 5688 5685 5682 5679 5677 5676 5674 5672 5670 5669 5667 5665 5662 5659 5657 5654 5651 5649 5648 5648 5647 5646 5645 5645 5644 5644 5644 5643 5642 5642 5642 5641 5641 5642 5642 5642 5642 5642 5643 5643 5644 5644 5645 5646 5647 5648 5649 5650 5652 5654 5655 5658 5661 5662 5665 5669 5673 5677 5682 5687 5690 5693 5697 5701 5706 5711 5715 5719 5723 5727 5731 5736
5737 5735 5732 5728 5726 5723 5720 5717 5713 5710 5707 5704 5700 5697 5694 5690 5687 5684 5681 5678 5676 5675 5673 5672 5670 5668 5666 5664 5661 5658 5655 5653 5650 5648 5647 5647 5646 5646 5645 5644 5644 5643 5642 5642 5641 5641 5641 5640 5640 5641 5641 5641 5641 5641 5642 5642 5643 5644 5644 5645 5646 5647 5649 5650 5651 5653 5655 5657 5660 5661 5664 5667 5671 5675 5680 5684 5686 5690 5695 5698 5702 5707 5711 5716 5720 5723 5727 5732
5736 5733 5730 5727 5724 5721 5718 5715 5712 5709 5706 5702 5699 5696 5692 5689 5686 5682 5680 5678 5675 5674 5673 5671 5670 5668 5665 5663 5660 5657 5654 5651 5649 5647 5646 5646 5645 5645 5644 5644 5643 5642 5642 5641 5641 5641 5640 5640 5640 5640 5641 5641 5641 5641 5642 5642 5643 5643 5643 5644 5645 5647 5648 5649 5650 5652 5654 5656 5658 5660 5662 5665 5670 5675 5678 5681 5684 5688 5692 5695 5699 5704 5708 5712 5716 5719 5723 5727
5734 5731 5728 5725 5722 5719 5717 5714 5710 5707 5704 5701 5698 5694 5691 5688 5685 5682 5679 5677 5675 5674 5673 5671 5670 5668 5665 5662 5659 5657 5654 5651 5648 5647 5646 5645 5645 5644 5644 5643 5643 5642 5642 5641 5641 5641 5640 5640 5640 5640 5641 5641 5641 5641 5641 5642 5642 5643 5643 5644 5645 5646 5646 5648 5649 5651 5652 5654 5656 5658 5661 5664 5668 5673 5677 5679 5682 5685 5688 5692 5696 5700 5704 5708 5711 5715 5718 5722
5733 5730 5727 5723 5720 5718 5715 5712 5709 5706 5703 5700 5697 5693 5690 5687 5684 5681 5679 5677 5675 5673 5672 5671 5669 5668 5665 5662 5659 5656 5654 5651 5648 5646 5646 5645 5645 5645 5644 5644 5643 5643 5642 5641 5641 5641 5641 5640 5640 5641 5641 5641 5641 5641 5641 5641 5642 5642 5643 5644 5644 5645 5646 5647 5648 5649 5651 5653 5654 5657 5660 5663 5667 5671 5675 5677 5680 5684 5686 5690 5693 5697 5701 5704 5707 5710 5713 5717
5731 5728 5725 5722 5719 5716 5713 5711 5708 5705 5702 5699 5696 5692 5689 5686 5683 5681 5678 5676 5674 5673 5671 5670 5669 5667 5665 5662 5659 5656 5654 5651 5648 5646 5646 5646 5646 5645 5645 5644 5643 5643 5642 5642 5641 5641 5641 5641 5641 5641 5641 5640 5640 5640 5640 5640 5640 5641 5642 5643 5644 5644 5645 5646 5647 5649 5650 5652 5653 5655 5658 5661 5665 5670 5673 5675 5679 5682 5684 5687 5690 5693 5696 5699 5702 5706 5709 5713
5729 5726 5724 5720 5717 5714 5711 5709 5706 5703 5701 5698 5694 5691 5688 5685 5683 5681 5678 5675 5674 5673 5671 5670 5668 5666 5664 5661 5659 5656 5654 5651 5649 5647 5646 5646 5646 5646 5645 5644 5644 5643 5642 5642 5641 5641 5641 5641 5640 5640 5640 5639 5639 5639 5639 5639 5639 5639 5640 5641 5642 5643 5644 5645 5646 5648 5649 5650 5652 5653 5655 5658 5662 5667 5671 5674 5677 5680 5682 5684 5687 5689 5692 5695 5698 5702 5705 5709
5727 5725 5722 5719 5716 5713 5710 5708 5705 5702 5700 5697 5693 5690 5688 5685 5683 5680 5677 5675 5673 5672 5671 5670 5668 5666 5664 5661 5659 5656 5654 5652 5650 5648 5647 5646 5645 5645 5645 5644 5643 5643 5642 5641 5641 5641 5641 5640 5640 5639 5639 5639 5638 5638 5638 5638 5638 5639 5639 5640 5640 5642 5643 5644 5645 5646 5647 5648 5650 5651 5653 5656 5660 5665 5669 5672 5675 5677 5679 5681 5683 5685 5688 5691 5694 5697 5701 5705
5725 5723 5720 5717 5714 5712 5709 5706 5704 5701 5699 5696 5693 5690 5687 5684 5682 5680 5677 5675 5673 5672 5671 5670 5668 5666 5664 5662 5659 5657 5655 5653 5652 5649 5648 5647 5646 5645 5644 5644 5643 5643 5642 5641 5641 5640 5640 5640 5639 5639 5639 5638 5638 5638 5638 5638 5638 5638 5638 5639 5639 5640 5641 5642 5643 5645 5646 5647 5648 5650 5652 5654 5657 5662 5667 5670 5673 5675 5676 5677 5679 5681 5684 5686 5689 5692 5696 5699
5724 5721 5718 5715 5712 5710 5708 5705 5703 5700 5698 5695 5692 5690 5687 5684 5682 5679 5676 5674 5673 5672 5671 5669 5668 5666 5664 5662 5660 5658 5656 5655 5653 5651 5649 5647 5646 5645 5645 5644 5643 5643 5643 5642 5641 5641 5640 5640 5639 5639 5639 5638 5638 5637 5637 5637 5638 5638 5638 5638 5638 5639 5640 5641 5642 5643 5645 5646 5647 5648 5650 5652 5655 5659 5664 5667 5670 5671 5672 5673 5676 5677 5678 5680 5683 5686 5689 5692
5722 5719 5716 5714 5711 5709 5706 5704 5701 5699 5697 5694 5691 5689 5686 5683 5681 5678 5676 5674 5673 5672 5670 5669 5667 5666 5664 5663 5661 5659 5657 5656 5654 5652 5650 5648 5647 5646 5645 5645 5644 5643 5643 5642 5641 5641 5640 5640 5639 5638 5638 5638 5637 5637 5637 5637 5637 5637 5637 5637 5637 5638 5639 5640 5641 5642 5643 5644 5645 5646 5648 5652 5654 5657 5660 5663 5665 5667 5669 5671 5673 5674 5675 5676 5679 5681 5684 5686
5720 5717 5715 5712 5710 5707 5705 5703 5700 5698 5696 5694 5691 5688 5685 5682 5680 5678 5676 5673 5672 5671 5670 5669 5668 5666 5664 5663 5661 5660 5658 5657 5655 5653 5651 5649 5648 5647 5646 5645 5645 5644 5643 5642 5642 5641 5640 5640 5639 5638 5638 5637 5637 5637 5636 5636 5636 5636 5636 5636 5637 5637 5638 5639 5640 5642 5642 5643 5644 5645 5647 5651 5653 5654 5656 5659 5661 5663 5666 5668 5670 5671 5671 5673 5675 5677 5679 5681
5718 5716 5713 5711 5708 5706 5704 5702 5700 5697 5695 5693 5690 5687 5684 5682 5679 5678 5675 5673 5672 5671 5670 5669 5667 5666 5664 5663 5662 5660 5659 5658 5656 5654 5652 5650 5649 5648 5647 5646 5645 5644 5644 5643 5642 5641 5640 5640 5639 5638 5638 5637 5636 5636 5636 5636 5636 5636 5636 5636 5637 5637 5638 5639 5640 5641 5642 5642 5644 5644 5646 5650 5652 5652 5653 5656 5658 5660 5662 5665 5667 5667 5668 5669 5671 5672 5674 5676
5716 5714 5711 5709 5707 5704 5702 5700 5698 5696 5694 5692 5689 5686 5683 5681 5679 5677 5675 5672 5671 5671 5670 5668 5667 5666 5665 5663 5662 5661 5660 5659 5657 5654 5653 5651 5650 5649 5647 5646 5645 5645 5644 5643 5642 5641 5640 5640 5639 5638 5637 5637 5636 5636 5636 5635 5635 5635 5636 5636 5636 5637 5638 5638 5639 5640 5640 5641 5642 5643 5644 5647 5648 5648 5650 5653 5654 5656 5658 5660 5662 5663 5664 5665 5666 5667 5669 5672
5715 5712 5710 5708 5705 5703 5701 5699 5697 5695 5693 5690 5688 5685 5683 5681 5678 5676 5674 5672 5671 5670 5669 5668 5667 5666 5665 5664 5663 5662 5660 5659 5657 5655 5653 5652 5650 5649 5648 5646 5645 5645 5644 5643 5642 5642 5641 5640 5639 5638 5638 5637 5636 5636 5635 5635 5635 5635 5635 5636 5636 5636 5637 5637 5638 5639 5639 5640 5641 5641 5643 5645 5645 5646 5648 5649 5650 5651 5653 5654 5655 5656 5658 5659 5660 5661 5663 5665
5713 5711 5709 5706 5704 5702 5699 5697 5695 5694 5692 5689 5687 5685 5682 5680 5677 5675 5673 5672 5671 5670 5669 5668 5667 5666 5665 5664 5663 5662 5661 5659 5657 5655 5654 5652 5651 5650 5648 5647 5646 5645 5645 5644 5643 5642 5641 5641 5640 5639 5638 5637 5637 5636 5635 5635 5635 5635 5635 5635 5635 5636 5636 5637 5637 5638 5639 5639 5640 5640 5642 5643 5644 5644 5645 5646 5646 5646 5646 5646 5646 5648 5650 5652 5653 5655 5656 5659
5711 5709 5707 5705 5703 5701 5698 5696 5694 5692 5690 5688 5686 5684 5681 5679 5677 5675 5673 5672 5671 5669 5668 5668 5667 5666 5665 5664 5663 5662 5661 5659 5657 5655 5654 5652 5651 5650 5649 5648 5646 5646 5645 5644 5644 5643 5642 5641 5640 5639 5638 5638 5637 5636 5635 5635 5635 5635 5635 5635 5635 5635 5635 5636 5636 5637 5637 5638 5639 5639 5640 5641 5641 5641 5642 5641 5640 5639 5640 5640 5640 5642 5643 5645 5647 5649 5651 5653
5709 5707 5705 5703 5701 5699 5697 5695 5693 5691 5689 5687 5685 5683 5680 5678 5676 5675 5673 5672 5671 5669 5668 5667 5667 5666 5665 5664 5663 5662 5661 5659 5657 5655 5654 5653 5651 5650 5649 5648 5647 5646 5645 5645 5644 5643 5642 5642 5641 5640 5638 5637 5637 5636 5636 5636 5635 5635 5634 5634 5634 5634 5634 5634 5635 5635 5636 5637 5638 5638 5639 5640 5640 5639 5637 5635 5634 5634 5636 5638 5638 5638 5639 5641 5642 5644 5645 5647
5707 5705 5703 5701 5699 5697 5695 5694 5692 5691 5689 5687 5685 5682 5680 5678 5676 5674 5673 5672 5670 5669 5667 5667 5666 5666 5665 5664 5663 5661 5660 5658 5657 5655 5654 5653 5652 5650 5649 5648 5648 5647 5646 5645 5645 5644 5643 5642 5641 5640 5639 5638 5637 5637 5636 5636 5635 5635 5634 5633 5633 5633 5634 5634 5634 5634 5634 5635 5636 5637 5637 5638 5638 5635 5633 5632 5632 5633 5635 5636 5636 5636 5637 5638 5639 5640 5641 5642
5705 5703 5701 5699 5697 5695 5693 5692 5691 5690 5688 5686 5684 5681 5679 5678 5676 5674 5672 5671 5670 5668 5667 5666 5665 5665 5664 5663 5662 5661 5660 5659 5658 5656 5654 5653 5652 5651 5650 5649 5648 5647 5646 5646 5645 5644 5643 5642 5641 5640 5640 5639 5638 5637 5636 5636 5635 5635 5634 5633 5633 5633 5633 5633 5632 5632 5632 5632 5633 5633 5634 5635 5635 5633 5632 5632 5632 5632 5633 5634 5634 5634 5634 5634 5634 5635 5636 5637
5703 5700 5698 5696 5695 5693 5692 5691 5690 5688 5687 5685 5683 5681 5678 5677 5675 5673 5671 5670 5669 5668 5666 5665 5664 5664 5663 5662 5662 5661 5660 5659 5658 5656 5655 5654 5653 5651 5650 5649 5649 5648 5647 5646 5646 5645 5644 5643 5642 5641 5640 5640 5638 5637 5637 5636 5636 5635 5634 5634 5633 5633 5632 5632 5632 5631 5631 5631 5631 5631 5631 5632 5632 5631 5631 5631 5631 5631 5631 5631 5631 5630 5629 5629 5628 5628 5629 5630
5700 5698 5696 5694 5693 5692 5690 5689 5688 5687 5686 5684 5682 5680 5677 5675 5674 5672 5670 5669 5668 5666 5665 5664 5664 5663 5662 5662 5661 5660 5660 5659 5658 5657 5656 5655 5653 5652 5651 5650 5650 5649 5648 5647 5646 5645 5644 5643 5642 5641 5640 5640 5639 5638 5638 5637 5636 5635 5634 5634 5634 5633 5632 5632 5631 5631 5630 5630 5631 5630 5630 5630 5630 5629 5629 5629 5629 5629 5628 5628 5627 5625 5624 5622 5621 5620 5620 5621
5697 5695 5693 5692 5691 5690 5689 5688 5687 5686 5684 5683 5681 5679 5677 5674 5673 5671 5669 5668 5667 5665 5664 5663 5663 5662 5662 5662 5661 5660 5660 5659 5659 5658 5656 5655 5654 5652 5652 5651 5650 5649 5649 5648 5647 5646 5645 5643 5642 5641 5641 5640 5639 5639 5638 5638 5637 5635 5635 5634 5634 5633 5632 5632 5631 5631 5630 5630 5630 5630 5629 5628 5628 5628 5628 5627 5626 5625 5624 5623 5621 5619 5618 5615 5612 5612 5611 5610
5694 5692 5691 5689 5688 5687 5687 5686 5685 5684 5683 5682 5680 5679 5676 5673 5671 5670 5669 5667 5666 5664 5663 5663 5662 5661 5661 5661 5661 5660 5659 5659 5658 5657 5657 5656 5654 5653 5652 5651 5650 5650 5649 5649 5648 5647 5645 5644 5644 5643 5642 5641 5640 5639 5639 5638 5637 5636 5635 5635 5634 5634 5633 5632 5631 5630 5629 5629 5629 5629 5627 5626 5626 5625 5625 5624 5623 5622 5620 5618 5615 5612 5609 5606 5603 5600 5599 5597